User: anonymous   Login
Location: White Ridge parking lot
(35.4984°N, 106.8413°W)
Time: 12:37:06
(UTC-06:00)
Language:

ITAMSAT 1 - Orbit

View from above orbital plane
View from above orbital plane
View from above satellite
View from above satellite

Ground track
Ground track

The orbit data is extracted from the following two-line orbital elements,

1 22826U 93061D   19258.54829947 -.00000023  00000-0  89925-5 0  9996
2 22826  98.9041 249.2208 0010040  89.0212 271.2120 14.30400180354858
Epoch (UTC): 15 September 2019 13:09:33
Eccentricity: 0.0010040
inclination: 98.9041°
perigee height: 783 km
apogee height: 797 km
right ascension of ascending node: 249.2208°
argument of perigee: 89.0212°
revolutions per day: 14.30400180
mean anomaly at epoch: 271.2120°
orbit number at epoch: 35485

The dashed part of the orbit path shows where the satellite is in the earth's shadow,  

DLR